Weather History for Belleville, IL

Change the Weather History Date:

Wednesday, February 13, 2013

  Actual Average Record
Temperature  
Mean Temperature 45 °F -  
Max Temperature 54 °F 43 °F 81 °F (1962)
Min Temperature 36 °F 25 °F 0 °F (1982)
Degree Days  
Heating Degree Days 20    
Moisture  
Dew Point 30 °F    
Average Humidity 64    
Maximum Humidity 86    
Minimum Humidity 30    
Precipitation  
Precipitation 0.00 in - - ()
Sea Level Pressure  
Sea Level Pressure 29.88 in    
Wind  
Wind Speed 2 mph (WNW)    
Max Wind Speed 9 mph    
Max Gust Speed -    
Visibility 10 miles    
Events      
Averages and records for this station are not official NWS values.
T = Trace of Precipitation, MM = Missing Value Source: NWS Daily Summary

Daily Weather History Graph

Daily Weather History Graph

Search for Another Location

Airport:

Trip Planner

Search our weather history database for the weather conditions in past years. The results will help you decide how hot, cold, wet, or windy it might be!

Date:

Astronomy

Feb. 13, 2013 Rise Set
Actual Time 6:52 AM CST 5:35 PM CST
Civil Twilight 6:24 AM CST 6:02 PM CST
Nautical Twilight 5:53 AM CST 6:33 PM CST
Astronomical Twilight 5:23 AM CST 7:04 PM CST
Moon 8:24 AM CST (2/13) 9:34 PM CST (2/13)
Length of Visible Light 11h 37m
Length of Day
10h 43m
Waxing Crescent, 14% of the Moon is Illuminated
Feb 13
Waxing Crescent
Feb 17
First Quarter
Feb 25
Full
Mar 4
Last Quarter
Mar 11
New

Hourly Weather History & Observations

Time (CST) Temp. Windchill Dew Point Humidity Pressure Visibility Wind Dir Wind Speed Gust Speed Precip Events Conditions
12:55 AM 37.8 °F - 32.2 °F 80% 29.95 in 10.0 mi Calm Calm - N/A   Clear
1:55 AM 37.6 °F 35.1 °F 33.1 °F 84% 29.94 in 10.0 mi NNE 3.5 mph - N/A   Clear
2:55 AM 37.4 °F - 32.5 °F 83% 29.91 in 10.0 mi Calm Calm - N/A   Clear
3:55 AM 37.2 °F - 31.8 °F 81% 29.90 in 10.0 mi Calm Calm - N/A   Clear
4:55 AM 37.0 °F 34.5 °F 33.1 °F 86% 29.88 in 10.0 mi Variable 3.5 mph - N/A   Clear
5:55 AM 37.0 °F - 32.0 °F 82% 29.88 in 10.0 mi Calm Calm - N/A   Clear
6:55 AM 36.7 °F - 32.4 °F 84% 29.89 in 10.0 mi Calm Calm - N/A   Clear
7:55 AM 37.4 °F - 32.5 °F 83% 29.91 in 10.0 mi Calm Calm - N/A   Scattered Clouds
8:55 AM 38.8 °F - 32.5 °F 78% 29.92 in 10.0 mi Calm Calm - N/A   Scattered Clouds
9:55 AM 42.4 °F 38.1 °F 30.2 °F 62% 29.91 in 10.0 mi Variable 6.9 mph - N/A   Clear
10:55 AM 46.2 °F 44.1 °F 26.2 °F 46% 29.89 in 10.0 mi Variable 4.6 mph - N/A   Clear
11:55 AM 48.4 °F - 28.4 °F 46% 29.88 in 10.0 mi Variable 5.8 mph - N/A   Clear
12:55 PM 51.6 °F - 28.2 °F 41% 29.85 in 10.0 mi Variable 5.8 mph - N/A   Clear
1:55 PM 52.9 °F - 28.6 °F 39% 29.83 in 10.0 mi WSW 8.1 mph - N/A   Clear
2:55 PM 54.7 °F - 23.4 °F 30% 29.82 in 10.0 mi WNW 9.2 mph - N/A   Clear
3:55 PM 54.1 °F - 24.6 °F 32% 29.82 in 10.0 mi Variable 5.8 mph - N/A   Clear
4:55 PM 52.9 °F - 24.1 °F 33% 29.82 in 10.0 mi West 8.1 mph - N/A   Clear
5:55 PM 49.1 °F - 26.6 °F 42% 29.83 in 10.0 mi West 3.5 mph - N/A   Clear
6:55 PM 44.6 °F 43.1 °F 26.8 °F 50% 29.85 in 10.0 mi West 3.5 mph - N/A   Clear
7:55 PM 40.1 °F - 29.8 °F 67% 29.86 in 10.0 mi Calm Calm - N/A   Clear
8:55 PM 40.6 °F 38.6 °F 29.8 °F 65% 29.88 in 10.0 mi Variable 3.5 mph - N/A   Clear
9:55 PM 39.0 °F 36.8 °F 31.8 °F 75% 29.88 in 10.0 mi Variable 3.5 mph - N/A   Clear
10:55 PM 38.1 °F - 31.6 °F 77% 29.88 in 10.0 mi Calm Calm - N/A   Clear
11:55 PM 36.7 °F - 31.5 °F 81% 29.88 in 10.0 mi Calm Calm - N/A   Clear